Weather History for Defiance, OH

Change the Weather History Date:

Tuesday, November 1, 2011

  Actual Average Record
Temperature  
Mean Temperature 46 °F -  
Max Temperature 61 °F 59 °F 82 °F (1950)
Min Temperature 30 °F 39 °F 22 °F (1988)
Degree Days  
Heating Degree Days 20    
Moisture  
Dew Point 31 °F    
Average Humidity 75    
Maximum Humidity 93    
Minimum Humidity 38    
Precipitation  
Precipitation 0.00 in - - ()
Sea Level Pressure  
Sea Level Pressure 30.22 in    
Wind  
Wind Speed 1 mph (South)    
Max Wind Speed 10 mph    
Max Gust Speed -    
Visibility 6 miles    
Events Fog    
Averages and records for this station are not official NWS values.
T = Trace of Precipitation, MM = Missing Value Source: NWS Daily Summary

Daily Weather History Graph

Daily Weather History Graph

Search for Another Location

Airport:

Trip Planner

Search our weather history database for the weather conditions in past years. The results will help you decide how hot, cold, wet, or windy it might be!

Date:

Astronomy

Nov. 01, 2011 Rise Set
Actual Time 8:08 AM EDT 6:33 PM EDT
Civil Twilight 7:40 AM EDT 7:01 PM EDT
Nautical Twilight 7:07 AM EDT 7:34 PM EDT
Astronomical Twilight 6:35 AM EDT 8:06 PM EDT
Moon 1:55 PM EDT (11/1) No Moon Set
Length of Visible Light 11h 21m
Length of Day
10h 24m
Waxing Crescent, 39% of the Moon is Illuminated
Nov 1
Waxing Crescent
Nov 2
First Quarter
Nov 10
Full
Nov 18
Last Quarter
Nov 25
New

Hourly Weather History & Observations

Time (EDT) Temp. Windchill Dew Point Humidity Pressure Visibility Wind Dir Wind Speed Gust Speed Precip Events Conditions
12:53 AM 35.1 °F - 30.9 °F 85% 30.20 in 10.0 mi Calm Calm - N/A   Clear
1:53 AM 34.0 °F - 30.9 °F 89% 30.21 in 5.0 mi Calm Calm - N/A   Clear
2:53 AM 34.0 °F - 30.0 °F 85% 30.22 in 7.0 mi Calm Calm - N/A   Clear
3:53 AM 32.0 °F - 28.9 °F 88% 30.22 in 7.0 mi Calm Calm - N/A   Clear
4:00 AM 32.0 °F - 28.4 °F 87% 30.20 in 2.0 mi Calm Calm - N/A   Clear
4:10 AM 32.0 °F - 28.4 °F 87% 30.20 in 3.0 mi Calm Calm - N/A   Clear
4:19 AM 32.0 °F - 28.4 °F 87% 30.20 in 1.8 mi Calm Calm - N/A   Clear
4:30 AM 32.0 °F - 28.4 °F 87% 30.20 in 2.5 mi Calm Calm - N/A   Clear
4:37 AM 32.0 °F - 28.4 °F 87% 30.21 in 6.0 mi Calm Calm - N/A   Clear
4:53 AM 30.9 °F - 28.0 °F 89% 30.22 in 4.0 mi Calm Calm - N/A   Clear
4:55 AM 30.2 °F - 28.4 °F 93% 30.20 in 2.0 mi Calm Calm - N/A   Clear
5:05 AM 30.2 °F - 26.6 °F 86% 30.20 in 3.0 mi Calm Calm - N/A   Clear
5:53 AM 32.0 °F - 28.0 °F 85% 30.23 in 6.0 mi Calm Calm - N/A   Clear
6:16 AM 32.0 °F - 28.4 °F 87% 30.22 in 2.0 mi Calm Calm - N/A   Clear
6:26 AM 30.2 °F - 28.4 °F 93% 30.22 in 3.0 mi Calm Calm - N/A   Clear
6:53 AM 30.0 °F - 27.0 °F 88% 30.25 in 5.0 mi Calm Calm - N/A   Scattered Clouds
7:05 AM 30.2 °F - 26.6 °F 86% 30.23 in 1.5 mi Calm Calm - N/A   Scattered Clouds
7:08 AM 30.2 °F - 26.6 °F 86% 30.23 in 0.8 mi Calm Calm - N/A   Mist
7:21 AM 30.2 °F - 26.6 °F 86% 30.23 in 1.2 mi Calm Calm - N/A   Partly Cloudy
7:24 AM 30.2 °F - 26.6 °F 86% 30.23 in 3.0 mi Calm Calm - N/A   Partly Cloudy
7:27 AM 30.2 °F - 26.6 °F 86% 30.23 in 1.5 mi Calm Calm - N/A   Partly Cloudy
7:30 AM 30.2 °F - 26.6 °F 86% 30.23 in 0.8 mi Calm Calm - N/A   Mist
7:53 AM 30.0 °F - 27.0 °F 88% 30.26 in 0.5 mi Calm Calm - N/A Fog Light Freezing Fog
7:57 AM 30.2 °F - 26.6 °F 86% 30.23 in 1.2 mi Calm Calm - N/A   Partly Cloudy
8:05 AM 30.2 °F - 26.6 °F 86% 30.24 in 3.0 mi Calm Calm - N/A   Clear
8:53 AM 30.9 °F - 28.0 °F 89% 30.27 in 4.0 mi Calm Calm - N/A   Clear
9:53 AM 39.0 °F 34.8 °F 35.1 °F 86% 30.27 in 5.0 mi South 5.8 mph - N/A   Clear
10:53 AM 44.1 °F 41.5 °F 37.0 °F 76% 30.27 in 9.0 mi South 4.6 mph - N/A   Clear
11:53 AM 48.9 °F - 37.9 °F 66% 30.27 in 10.0 mi South 4.6 mph - N/A   Clear
12:53 PM 55.0 °F - 39.9 °F 57% 30.25 in 10.0 mi South 6.9 mph - N/A   Clear
1:53 PM 57.0 °F - 37.9 °F 49% 30.22 in 10.0 mi South 8.1 mph - N/A   Clear
2:53 PM 59.0 °F - 36.0 °F 42% 30.20 in 10.0 mi South 8.1 mph - N/A   Clear
3:53 PM 60.1 °F - 36.0 °F 41% 30.19 in 10.0 mi South 10.4 mph - N/A   Clear
4:53 PM 61.0 °F - 35.1 °F 38% 30.19 in 10.0 mi South 10.4 mph - N/A   Clear
5:53 PM 59.0 °F - 37.0 °F 44% 30.19 in 10.0 mi South 4.6 mph - N/A   Clear
6:53 PM 55.9 °F - 36.0 °F 47% 30.19 in 10.0 mi SSE 3.5 mph - N/A   Clear
7:53 PM 54.0 °F - 36.0 °F 51% 30.20 in 10.0 mi SSE 4.6 mph - N/A   Clear
8:53 PM 53.1 °F - 37.0 °F 55% 30.20 in 10.0 mi South 6.9 mph - N/A   Clear
9:53 PM 53.1 °F - 36.0 °F 52% 30.20 in 10.0 mi South 8.1 mph - N/A   Clear
10:53 PM 52.0 °F - 36.0 °F 54% 30.20 in 10.0 mi South 9.2 mph - N/A   Clear
11:53 PM 52.0 °F - 36.0 °F 54% 30.19 in 10.0 mi SSW 10.4 mph - N/A   Clear